This is the latest recevied weather packets stored in our database for station/object ON7MOR-11. If no packets are shown the sender has not sent any weather packets the latest 10 day(s).
| Time | Temp. | Humidity | Pressure | Rain* | Wind** | Luminosity | Snow |
|---|---|---|---|---|---|---|---|
| 1777820287 | 21.11° C | 43% | 1011.4 hPa | - | - | - | - |
| 1777819384 | 21.11° C | 44% | 1011.5 hPa | - | - | - | - |
| 1777818488 | 21.11° C | 44% | 1011.6 hPa | - | - | - | - |
| 1777817588 | 21.67° C | 43% | 1011.6 hPa | - | - | - | - |
| 1777816691 | 21.11° C | 44% | 1011.7 hPa | - | - | - | - |
| 1777815784 | 20.56° C | 44% | 1011.8 hPa | - | - | - | - |
| 1777814884 | 20.56° C | 44% | 1012 hPa | - | - | - | - |
| 1777813984 | 21.11° C | 44% | 1011.9 hPa | - | - | - | - |
| 1777813084 | 21.11° C | 44% | 1011.8 hPa | - | - | - | - |
| 1777812184 | 21.11° C | 44% | 1011.8 hPa | - | - | - | - |
| 1777811283 | 20.56° C | 44% | 1012 hPa | - | - | - | - |
| 1777810383 | 20.56° C | 43% | 1012.1 hPa | - | - | - | - |
| 1777809483 | 20.56° C | 44% | 1012.1 hPa | - | - | - | - |
| 1777808583 | 20.56° C | 44% | 1012.1 hPa | - | - | - | - |
| 1777807683 | 20.56° C | 45% | 1012.3 hPa | - | - | - | - |
| 1777806783 | 20.56° C | 45% | 1012.2 hPa | - | - | - | - |
| 1777805883 | 20.56° C | 45% | 1012.3 hPa | - | - | - | - |
| 1777804983 | 20.56° C | 46% | 1012.3 hPa | - | - | - | - |
| 1777804083 | 20° C | 46% | 1012.3 hPa | - | - | - | - |
| 1777803183 | 20° C | 45% | 1012.3 hPa | - | - | - | - |
| 1777802282 | 20° C | 44% | 1012.3 hPa | - | - | - | - |
| 1777801382 | 20° C | 43% | 1012.4 hPa | - | - | - | - |
| 1777800482 | 20° C | 44% | 1012.3 hPa | - | - | - | - |
| 1777799582 | 20° C | 43% | 1012.4 hPa | - | - | - | - |
| 1777798682 | 20° C | 43% | 1012.4 hPa | - | - | - | - |
* Rain since midnight (hover to see other rain measurements)
** Current wind speed in m/s (hover to see current wind gust speed)